| time (UTC) | temp C | wind direction | speed KPH | gust KPH | rain 1hr cm | rain 24hr cm | rain mn cm | humidity % | barometer mb |
| 20260505223309 | 10 | 10 | 1.6 | 14.5 | 0.00 | 0.00 | 0.00 | 73 | 7.8 |
| 20260505222309 | 10 | 38 | 1.6 | 19.3 | 0.00 | 0.00 | 0.00 | 73 | 7.8 |
| 20260505221309 | 10 | 346 | 8.0 | 17.7 | 0.00 | 0.00 | 0.00 | 72 | 8.0 |
| 20260505220309 | 10 | 355 | 4.8 | 16.1 | 0.00 | 0.00 | 0.00 | 72 | 8.1 |
| 20260505215309 | 10 | 47 | 0.0 | 16.1 | 0.00 | 0.00 | 0.00 | 72 | 8.1 |
| 20260505214309 | 10 | 30 | 0.0 | 14.5 | 0.00 | 0.00 | 0.00 | 72 | 8.2 |
| 20260505212309 | 10 | 58 | 1.6 | 14.5 | 0.00 | 0.00 | 0.00 | 71 | 8.3 |
| 20260505211309 | 10 | 82 | 1.6 | 9.7 | 0.00 | 0.00 | 0.00 | 70 | 8.2 |
| 20260505205309 | 11 | 348 | 0.0 | 14.5 | 0.00 | 0.00 | 0.00 | 70 | 8.2 |
| 20260505203309 | 11 | 5 | 0.0 | 4.8 | 0.00 | 0.00 | 0.00 | 73 | 8.2 |
| 20260505202309 | 11 | 71 | 0.0 | 16.1 | 0.00 | 0.00 | 0.00 | 72 | 8.1 |
| 20260505201310 | 11 | 61 | 0.0 | 14.5 | 0.00 | 0.00 | 0.00 | 72 | 8.2 |
| 20260505193309 | 11 | 42 | 0.0 | 9.7 | 0.00 | 0.00 | 0.00 | 69 | 8.0 |
| 20260505192311 | 11 | 74 | 1.6 | 14.5 | 0.00 | 0.00 | 0.00 | 68 | 8.0 |
| 20260505191309 | 11 | 65 | 3.2 | 20.9 | 0.00 | 0.00 | 0.00 | 68 | 7.9 |
| 20260505185309 | 11 | 40 | 4.8 | 14.5 | 0.00 | 0.00 | 0.00 | 68 | 8.0 |
| 20260505184309 | 11 | 39 | 3.2 | 19.3 | 0.00 | 0.00 | 0.00 | 67 | 7.8 |
| 20260505183309 | 12 | 52 | 8.0 | 24.1 | 0.00 | 0.00 | 0.00 | 67 | 7.9 |
| 20260505182309 | 12 | 65 | 6.4 | 16.1 | 0.00 | 0.00 | 0.00 | 67 | 7.8 |
| 20260505181310 | 12 | 62 | 6.4 | 22.5 | 0.00 | 0.00 | 0.00 | 65 | 7.8 |
| 20260505180309 | 12 | 74 | 9.7 | 22.5 | 0.00 | 0.00 | 0.00 | 65 | 7.7 |
| 20260505174309 | 13 | 35 | 11.3 | 25.7 | 0.00 | 0.00 | 0.00 | 64 | 7.8 |
| 20260505173309 | 13 | 43 | 11.3 | 22.5 | 0.00 | 0.00 | 0.00 | 63 | 7.7 |
| 20260505172309 | 13 | 61 | 9.7 | 20.9 | 0.00 | 0.00 | 0.00 | 62 | 7.7 |
| 20260505171309 | 14 | 85 | 3.2 | 19.3 | 0.00 | 0.00 | 0.00 | 62 | 7.8 |
| 20260505165309 | 14 | 71 | 3.2 | 22.5 | 0.00 | 0.00 | 0.00 | 60 | 7.8 |
| 20260505164309 | 14 | 60 | 3.2 | 17.7 | 0.00 | 0.00 | 0.00 | 62 | 7.9 |
| 20260505163310 | 15 | 42 | 8.0 | 22.5 | 0.00 | 0.00 | 0.00 | 59 | 8.0 |
| 20260505162309 | 15 | 90 | 8.0 | 24.1 | 0.00 | 0.00 | 0.00 | 60 | 8.0 |
| 20260505161309 | 15 | 84 | 4.8 | 17.7 | 0.00 | 0.00 | 0.00 | 61 | 7.9 |
| 20260505152309 | 14 | 105 | 1.6 | 17.7 | 0.00 | 0.00 | 0.00 | 64 | 8.2 |
| 20260505151310 | 13 | 74 | 4.8 | 16.1 | 0.00 | 0.00 | 0.00 | 66 | 8.3 |
| 20260505122309 | 11 | 84 | 0.0 | 16.1 | 0.00 | 0.00 | 0.00 | 76 | 9.1 |
| 20260505121309 | 11 | 75 | 4.8 | 19.3 | 0.00 | 0.00 | 0.00 | 75 | 9.1 |
| 20260505115309 | 11 | 94 | 8.0 | 17.7 | 0.00 | 0.00 | 0.00 | 76 | 9.4 |
| 20260505114309 | 11 | 74 | 0.0 | 17.7 | 0.00 | 0.00 | 0.00 | 77 | 9.4 |
| 20260505113309 | 11 | 69 | 4.8 | 22.5 | 0.00 | 0.00 | 0.00 | 76 | 9.3 |
| 20260505112309 | 11 | 57 | 3.2 | 14.5 | 0.00 | 0.00 | 0.00 | 77 | 9.4 |
| 20260505111310 | 11 | 55 | 3.2 | 11.3 | 0.00 | 0.00 | 0.00 | 77 | 9.4 |
| 20260505095310 | 11 | 76 | 4.8 | 17.7 | 0.00 | 0.00 | 0.00 | 77 | 9.8 |
| 20260505093310 | 11 | 343 | 0.0 | 12.9 | 0.00 | 0.00 | 0.00 | 78 | 10.1 |
| 20260505084310 | 10 | 54 | 4.8 | 20.9 | 0.00 | 0.00 | 0.00 | 80 | 9.7 |
| 20260505083310 | 10 | 50 | 3.2 | 14.5 | 0.00 | 0.00 | 0.00 | 81 | 9.8 |
| 20260505082310 | 10 | 90 | 4.8 | 24.1 | 0.00 | 0.00 | 0.00 | 80 | 9.7 |
| 20260505075310 | 10 | 78 | 6.4 | 22.5 | 0.00 | 0.00 | 0.00 | 82 | 9.8 |
| 20260505074310 | 9 | 54 | 11.3 | 20.9 | 0.00 | 0.00 | 0.00 | 82 | 9.9 |
| 20260505073310 | 9 | 69 | 8.0 | 22.5 | 0.00 | 0.00 | 0.00 | 83 | 9.8 |
| 20260505072310 | 9 | 73 | 11.3 | 22.5 | 0.00 | 0.00 | 0.00 | 84 | 9.8 |
| 20260505071310 | 9 | 68 | 8.0 | 19.3 | 0.00 | 0.00 | 0.00 | 84 | 9.8 |
| 20260505065310 | 9 | 30 | 1.6 | 19.3 | 0.00 | 0.00 | 0.00 | 85 | 10.0 |
| 20260505064313 | 9 | 59 | 3.2 | 19.3 | 0.00 | 0.00 | 0.00 | 85 | 10.2 |
| 20260505063310 | 9 | 44 | 8.0 | 17.7 | 0.00 | 0.00 | 0.00 | 85 | 10.1 |
| 20260505062310 | 9 | 90 | 9.7 | 19.3 | 0.00 | 0.00 | 0.00 | 85 | 10.3 |
| 20260505061310 | 9 | 30 | 4.8 | 12.9 | 0.00 | 0.00 | 0.00 | 85 | 10.3 |
| 20260505055311 | 9 | 63 | 1.6 | 11.3 | 0.00 | 0.00 | 0.00 | 85 | 10.5 |
| 20260505054310 | 9 | 355 | 4.8 | 19.3 | 0.00 | 0.00 | 0.00 | 85 | 10.3 |
| 20260505052310 | 9 | 19 | 4.8 | 17.7 | 0.00 | 0.00 | 0.00 | 85 | 9.8 |
| 20260505041310 | 9 | 55 | 1.6 | 19.3 | 0.00 | 0.00 | 0.00 | 86 | 9.9 |
| 20260505035310 | 9 | 53 | 9.7 | 19.3 | 0.00 | 0.00 | 0.00 | 85 | 10.0 |
| 20260505034310 | 9 | 49 | 4.8 | 14.5 | 0.00 | 0.00 | 0.00 | 86 | 9.9 |
| 20260505033311 | 9 | 62 | 3.2 | 16.1 | 0.00 | 0.00 | 0.00 | 86 | 10.0 |
| 20260505032310 | 9 | 77 | 0.0 | 8.0 | 0.00 | 0.00 | 0.00 | 86 | 10.0 |
| 20260505031310 | 10 | 44 | 1.6 | 17.7 | 0.00 | 0.00 | 0.00 | 86 | 10.0 |
| 20260505024310 | 10 | 44 | 3.2 | 14.5 | 0.00 | 0.00 | 0.00 | 85 | 10.0 |
| 20260505023311 | 10 | 36 | 4.8 | 20.9 | 0.00 | 0.00 | 0.00 | 85 | 10.0 |
| 20260505022310 | 10 | 63 | 14.5 | 24.1 | 0.00 | 0.00 | 0.00 | 84 | 10.0 |
| 20260505015310 | 10 | 38 | 1.6 | 17.7 | 0.00 | 0.00 | 0.00 | 84 | 10.1 |
| 20260505013311 | 10 | 36 | 1.6 | 12.9 | 0.00 | 0.00 | 0.00 | 84 | 10.3 |
| 20260505012311 | 10 | 17 | 6.4 | 20.9 | 0.00 | 0.00 | 0.00 | 84 | 10.4 |
| 20260505011312 | 10 | 71 | 0.0 | 14.5 | 0.00 | 0.00 | 0.00 | 84 | 10.4 |
| 20260505003311 | 11 | 9 | 3.2 | 20.9 | 0.00 | 0.00 | 0.00 | 84 | 10.4 |
| 20260505001310 | 11 | 57 | 6.4 | 25.7 | 0.00 | 0.00 | 0.00 | 83 | 10.5 |
| 20260504235310 | 11 | 63 | 3.2 | 16.1 | 0.00 | 0.00 | 0.00 | 83 | 10.6 |
| 20260504234310 | 12 | 88 | 4.8 | 16.1 | 0.00 | 0.00 | 0.00 | 82 | 10.7 |
| 20260504232310 | 12 | 14 | 4.8 | 16.1 | 0.00 | 0.00 | 0.00 | 82 | 10.8 |
| 20260504231314 | 12 | 22 | 4.8 | 20.9 | 0.00 | 0.00 | 0.00 | 81 | 10.8 |
| 20260504225309 | 12 | 36 | 0.0 | 12.9 | 0.00 | 0.00 | 0.00 | 81 | 10.8 |